| time (UTC) | temp F | wind direction | speed knots | gust knots | rain 1hr in | rain 24hr in | rain mn in | humidity % | barometer mb |
| 20260504231624 | 55 | 315 | 4.3 | 7.0 | 0.00 | 0.00 | 0.00 | 40 | 1001.9 |
| 20260504231121 | 55 | 252 | 2.6 | 9.6 | 0.00 | 0.00 | 0.00 | 39 | 1002.0 |
| 20260504230616 | 56 | 298 | 6.1 | 7.8 | 0.00 | 0.00 | 0.00 | 39 | 1002.0 |
| 20260504230116 | 56 | 263 | 0.9 | 5.2 | 0.00 | 0.00 | 0.00 | 39 | 1001.7 |
| 20260504225613 | 57 | 295 | 5.2 | 7.0 | 0.00 | 0.00 | 0.00 | 38 | 1001.6 |
| 20260504225109 | 58 | 289 | 4.3 | 7.8 | 0.00 | 0.00 | 0.00 | 38 | 1001.7 |
| 20260504224606 | 57 | 306 | 7.0 | 9.6 | 0.00 | 0.00 | 0.00 | 37 | 1001.6 |
| 20260504224103 | 57 | 288 | 2.6 | 8.7 | 0.00 | 0.00 | 0.00 | 38 | 1001.3 |
| 20260504223600 | 57 | 284 | 4.3 | 7.8 | 0.00 | 0.00 | 0.00 | 38 | 1001.2 |
| 20260504223055 | 57 | 282 | 6.1 | 13.9 | 0.00 | 0.00 | 0.00 | 38 | 1001.1 |
| 20260504222553 | 58 | 319 | 7.0 | 9.6 | 0.00 | 0.00 | 0.00 | 38 | 1001.0 |
| 20260504222050 | 59 | 233 | 4.3 | 7.0 | 0.00 | 0.00 | 0.00 | 36 | 1000.9 |
| 20260504221547 | 59 | 242 | 3.5 | 13.0 | 0.00 | 0.00 | 0.00 | 37 | 1000.7 |
| 20260504221044 | 60 | 295 | 4.3 | 12.2 | 0.00 | 0.00 | 0.00 | 37 | 1000.7 |
| 20260504220540 | 59 | 354 | 3.5 | 7.0 | 0.00 | 0.00 | 0.00 | 36 | 1000.5 |
| 20260504220038 | 58 | 236 | 3.5 | 5.2 | 0.00 | 0.00 | 0.00 | 37 | 1000.5 |
| 20260504215534 | 60 | 284 | 3.5 | 7.8 | 0.00 | 0.00 | 0.00 | 35 | 1000.4 |
| 20260504215032 | 60 | 282 | 5.2 | 8.7 | 0.00 | 0.00 | 0.00 | 36 | 1000.5 |
| 20260504214527 | 60 | 303 | 2.6 | 9.6 | 0.00 | 0.00 | 0.00 | 36 | 1000.4 |
| 20260504214024 | 60 | 259 | 6.1 | 8.7 | 0.00 | 0.00 | 0.00 | 35 | 1000.2 |
| 20260504213521 | 61 | 259 | 2.6 | 11.3 | 0.00 | 0.00 | 0.00 | 35 | 1000.0 |
| 20260504213018 | 60 | 237 | 3.5 | 11.3 | 0.00 | 0.00 | 0.00 | 37 | 999.9 |
| 20260504212514 | 59 | 258 | 4.3 | 8.7 | 0.00 | 0.00 | 0.00 | 37 | 999.9 |
| 20260504212011 | 61 | 267 | 6.1 | 13.9 | 0.00 | 0.00 | 0.00 | 36 | 1000.0 |
| 20260504211508 | 60 | 228 | 3.5 | 8.7 | 0.00 | 0.00 | 0.00 | 36 | 999.8 |
| 20260504211005 | 61 | 312 | 7.8 | 8.7 | 0.00 | 0.00 | 0.00 | 36 | 999.8 |
| 20260504210502 | 62 | 292 | 6.1 | 7.8 | 0.00 | 0.00 | 0.00 | 35 | 999.9 |
| 20260504205958 | 62 | 244 | 6.1 | 15.6 | 0.00 | 0.00 | 0.00 | 35 | 999.8 |
| 20260504205456 | 61 | 259 | 3.5 | 11.3 | 0.00 | 0.00 | 0.00 | 36 | 1000.1 |
| 20260504204954 | 61 | 247 | 4.3 | 7.0 | 0.00 | 0.00 | 0.00 | 36 | 999.8 |
| 20260504204452 | 60 | 268 | 3.5 | 9.6 | 0.00 | 0.00 | 0.00 | 37 | 999.8 |
| 20260504203951 | 61 | 322 | 7.0 | 12.2 | 0.00 | 0.00 | 0.00 | 35 | 999.6 |
| 20260504203449 | 62 | 266 | 5.2 | 6.1 | 0.00 | 0.00 | 0.00 | 35 | 999.5 |
| 20260504202944 | 62 | 269 | 4.3 | 11.3 | 0.00 | 0.00 | 0.00 | 36 | 999.6 |
| 20260504202441 | 62 | 283 | 3.5 | 8.7 | 0.00 | 0.00 | 0.00 | 36 | 999.5 |
| 20260504201938 | 62 | 258 | 3.5 | 9.6 | 0.00 | 0.00 | 0.00 | 36 | 999.5 |
| 20260504201435 | 62 | 258 | 5.2 | 7.8 | 0.00 | 0.00 | 0.00 | 36 | 999.5 |
| 20260504200933 | 63 | 283 | 4.3 | 9.6 | 0.00 | 0.00 | 0.00 | 36 | 999.5 |
| 20260504200429 | 62 | 279 | 3.5 | 9.6 | 0.00 | 0.00 | 0.00 | 34 | 999.5 |
| 20260504195926 | 62 | 265 | 5.2 | 7.8 | 0.00 | 0.00 | 0.00 | 34 | 999.4 |
| 20260504195422 | 61 | 272 | 3.5 | 7.0 | 0.00 | 0.00 | 0.00 | 35 | 999.4 |
| 20260504194919 | 62 | 303 | 2.6 | 5.2 | 0.00 | 0.00 | 0.00 | 35 | 999.0 |
| 20260504194414 | 62 | 259 | 4.3 | 11.3 | 0.00 | 0.00 | 0.00 | 35 | 999.3 |
| 20260504193911 | 62 | 352 | 4.3 | 7.0 | 0.00 | 0.00 | 0.00 | 32 | 999.1 |
| 20260504193408 | 62 | 286 | 5.2 | 7.8 | 0.00 | 0.00 | 0.00 | 33 | 999.1 |
| 20260504192907 | 63 | 279 | 4.3 | 7.8 | 0.00 | 0.00 | 0.00 | 33 | 999.1 |
| 20260504192404 | 63 | 252 | 5.2 | 7.0 | 0.00 | 0.00 | 0.00 | 35 | 999.1 |
| 20260504191902 | 62 | 276 | 6.1 | 7.8 | 0.00 | 0.00 | 0.00 | 33 | 999.0 |
| 20260504191400 | 62 | 267 | 7.8 | 11.3 | 0.00 | 0.00 | 0.00 | 33 | 999.0 |
| 20260504190855 | 62 | 264 | 5.2 | 12.2 | 0.00 | 0.00 | 0.00 | 32 | 999.0 |
| 20260504190351 | 63 | 283 | 5.2 | 11.3 | 0.00 | 0.00 | 0.00 | 31 | 998.9 |
| 20260504185848 | 62 | 348 | 4.3 | 6.1 | 0.00 | 0.00 | 0.00 | 34 | 998.7 |
| 20260504185345 | 61 | 264 | 3.5 | 7.8 | 0.00 | 0.00 | 0.00 | 34 | 998.9 |
| 20260504184841 | 61 | 278 | 5.2 | 12.2 | 0.00 | 0.00 | 0.00 | 32 | 998.8 |
| 20260504184337 | 62 | 240 | 6.1 | 9.6 | 0.00 | 0.00 | 0.00 | 32 | 998.8 |
| 20260504183833 | 63 | 261 | 3.5 | 7.0 | 0.00 | 0.00 | 0.00 | 33 | 998.5 |
| 20260504183331 | 63 | 235 | 5.2 | 7.8 | 0.00 | 0.00 | 0.00 | 32 | 998.3 |
| 20260504182828 | 63 | 247 | 2.6 | 9.6 | 0.00 | 0.00 | 0.00 | 36 | 998.5 |
| 20260504182325 | 63 | 241 | 3.5 | 7.8 | 0.00 | 0.00 | 0.00 | 36 | 998.5 |
| 20260504181822 | 64 | 299 | 3.5 | 7.0 | 0.00 | 0.00 | 0.00 | 38 | 997.9 |
| 20260504181320 | 64 | 228 | 4.3 | 7.8 | 0.00 | 0.00 | 0.00 | 37 | 998.0 |
| 20260504180819 | 64 | 291 | 3.5 | 7.0 | 0.00 | 0.00 | 0.00 | 36 | 997.8 |
| 20260504180317 | 64 | 281 | 6.1 | 9.6 | 0.00 | 0.00 | 0.00 | 36 | 998.0 |
| 20260504175814 | 64 | 326 | 3.5 | 8.7 | 0.00 | 0.00 | 0.00 | 36 | 997.8 |
| 20260504175311 | 64 | 270 | 7.0 | 9.6 | 0.00 | 0.00 | 0.00 | 35 | 997.8 |
| 20260504174809 | 64 | 291 | 2.6 | 6.1 | 0.00 | 0.00 | 0.00 | 35 | 997.8 |
| 20260504174306 | 64 | 192 | 1.7 | 4.3 | 0.00 | 0.00 | 0.00 | 37 | 997.8 |
| 20260504173803 | 63 | 232 | 4.3 | 9.6 | 0.00 | 0.00 | 0.00 | 35 | 997.7 |
| 20260504173300 | 64 | 291 | 4.3 | 7.0 | 0.00 | 0.00 | 0.00 | 34 | 997.6 |
| 20260504172756 | 64 | 259 | 5.2 | 12.2 | 0.00 | 0.00 | 0.00 | 35 | 997.7 |
| 20260504172253 | 64 | 317 | 8.7 | 11.3 | 0.00 | 0.00 | 0.00 | 35 | 997.6 |
| 20260504171749 | 63 | 245 | 3.5 | 6.1 | 0.00 | 0.00 | 0.00 | 36 | 997.5 |
| 20260504171246 | 63 | 217 | 5.2 | 7.0 | 0.00 | 0.00 | 0.00 | 36 | 997.5 |
| 20260504170743 | 64 | 252 | 3.5 | 7.8 | 0.00 | 0.00 | 0.00 | 37 | 997.4 |
| 20260504170240 | 63 | 263 | 5.2 | 6.1 | 0.00 | 0.00 | 0.00 | 35 | 997.6 |
| 20260504160159 | 64 | 240 | 5.2 | 7.8 | 0.00 | 0.00 | 0.00 | 35 | 997.7 |
| 20260504151126 | 61 | 310 | 7.8 | 12.2 | 0.00 | 0.00 | 0.00 | 35 | 997.5 |
| 20260504150624 | 60 | 285 | 5.2 | 7.0 | 0.00 | 0.00 | 0.00 | 36 | 997.3 |
| 20260504150121 | 61 | 271 | 1.7 | 7.0 | 0.00 | 0.00 | 0.00 | 38 | 997.3 |
| 20260504141049 | 63 | 252 | 4.3 | 7.0 | 0.00 | 0.00 | 0.00 | 45 | 996.9 |
| 20260504140546 | 63 | 238 | 3.5 | 9.6 | 0.00 | 0.00 | 0.00 | 44 | 996.8 |
| 20260504130510 | 62 | 276 | 2.6 | 7.8 | 0.00 | 0.00 | 0.00 | 44 | 996.1 |
| 20260504110358 | 55 | 222 | 1.7 | 6.1 | 0.00 | 0.00 | 0.00 | 50 | 995.3 |
| 20260504100315 | 55 | 210 | 2.6 | 6.1 | 0.00 | 0.00 | 0.00 | 49 | 996.3 |
| 20260504081708 | 55 | 194 | 1.7 | 6.1 | 0.00 | 0.00 | 0.00 | 47 | 997.9 |
| 20260504081205 | 55 | 208 | 1.7 | 4.3 | 0.00 | 0.00 | 0.00 | 46 | 998.1 |
| 20260504080701 | 55 | 206 | 3.5 | 5.2 | 0.00 | 0.00 | 0.00 | 46 | 998.1 |
| 20260504080158 | 56 | 204 | 2.6 | 7.0 | 0.00 | 0.00 | 0.00 | 45 | 998.1 |
| 20260504070125 | 51 | 205 | 0.9 | 1.7 | 0.00 | 0.00 | 0.00 | 55 | 999.3 |
| 20260504050514 | 53 | 212 | 1.7 | 1.7 | 0.00 | 0.00 | 0.00 | 49 | 1001.5 |
| 20260504050011 | 53 | 202 | 1.7 | 1.7 | 0.00 | 0.00 | 0.00 | 48 | 1001.6 |
| 20260504045508 | 53 | 212 | 1.7 | 1.7 | 0.00 | 0.00 | 0.00 | 48 | 1001.7 |
| 20260504045003 | 53 | 209 | 0.9 | 1.7 | 0.00 | 0.00 | 0.00 | 48 | 1001.8 |
| 20260504044501 | 53 | 207 | 1.7 | 1.7 | 0.00 | 0.00 | 0.00 | 47 | 1001.9 |
| 20260504043958 | 53 | 221 | 0.9 | 1.7 | 0.00 | 0.00 | 0.00 | 49 | 1001.9 |
| 20260504043455 | 53 | 221 | 0.9 | 0.9 | 0.00 | 0.00 | 0.00 | 48 | 1002.0 |
| 20260504042952 | 53 | 221 | 0.9 | 1.7 | 0.00 | 0.00 | 0.00 | 48 | 1001.9 |
| 20260504042449 | 53 | 222 | 0.9 | 0.9 | 0.00 | 0.00 | 0.00 | 48 | 1002.1 |
| 20260504041946 | 53 | 222 | 0.9 | 0.9 | 0.00 | 0.00 | 0.00 | 47 | 1002.5 |
| 20260504041442 | 53 | 222 | 0.9 | 0.9 | 0.00 | 0.00 | 0.00 | 47 | 1002.4 |
| 20260504040937 | 54 | 222 | 0.9 | 0.9 | 0.00 | 0.00 | 0.00 | 49 | 1002.6 |
| 20260504040436 | 54 | 222 | 0.9 | 0.9 | 0.00 | 0.00 | 0.00 | 49 | 1002.7 |
| 20260504035931 | 54 | 222 | 0.9 | 0.9 | 0.00 | 0.00 | 0.00 | 49 | 1002.7 |
| 20260504035429 | 54 | 222 | 0.9 | 0.9 | 0.00 | 0.00 | 0.00 | 49 | 1002.8 |
| 20260504034925 | 55 | 222 | 0.9 | 0.9 | 0.00 | 0.00 | 0.00 | 48 | 1002.9 |
| 20260504034423 | 55 | 222 | 0.9 | 0.9 | 0.00 | 0.00 | 0.00 | 48 | 1003.1 |
| 20260504033920 | 55 | 222 | 0.9 | 0.9 | 0.00 | 0.00 | 0.00 | 46 | 1002.8 |
| 20260504033418 | 55 | 223 | 0.9 | 0.9 | 0.00 | 0.00 | 0.00 | 47 | 1002.9 |
| 20260504032914 | 55 | 222 | 0.9 | 0.9 | 0.00 | 0.00 | 0.00 | 47 | 1003.1 |
| 20260504032411 | 55 | 222 | 0.9 | 0.9 | 0.00 | 0.00 | 0.00 | 46 | 1003.1 |
| 20260504031908 | 56 | 223 | 0.9 | 0.9 | 0.00 | 0.00 | 0.00 | 45 | 1003.4 |
| 20260504031405 | 56 | 222 | 0.9 | 0.9 | 0.00 | 0.00 | 0.00 | 46 | 1003.4 |
| 20260504030902 | 56 | 223 | 0.9 | 0.9 | 0.00 | 0.00 | 0.00 | 47 | 1003.3 |
| 20260504030359 | 57 | 223 | 0.9 | 0.9 | 0.00 | 0.00 | 0.00 | 44 | 1003.3 |
| 20260504025854 | 57 | 223 | 0.9 | 0.9 | 0.00 | 0.00 | 0.00 | 45 | 1003.5 |
| 20260504025352 | 57 | 223 | 0.9 | 0.9 | 0.00 | 0.00 | 0.00 | 46 | 1003.4 |
| 20260504024848 | 57 | 223 | 0.9 | 0.9 | 0.00 | 0.00 | 0.00 | 43 | 1003.3 |
| 20260504024345 | 58 | 223 | 0.9 | 0.9 | 0.00 | 0.00 | 0.00 | 42 | 1003.5 |
| 20260504023842 | 58 | 223 | 0.9 | 0.9 | 0.00 | 0.00 | 0.00 | 42 | 1003.6 |
| 20260504023339 | 58 | 223 | 0.9 | 0.9 | 0.00 | 0.00 | 0.00 | 41 | 1003.6 |
| 20260504022834 | 59 | 223 | 0.9 | 0.9 | 0.00 | 0.00 | 0.00 | 40 | 1003.4 |
| 20260504022331 | 59 | 223 | 0.9 | 0.9 | 0.00 | 0.00 | 0.00 | 41 | 1003.5 |
| 20260504021828 | 60 | 223 | 0.9 | 0.9 | 0.00 | 0.00 | 0.00 | 38 | 1003.5 |
| 20260504021325 | 60 | 223 | 0.9 | 0.9 | 0.00 | 0.00 | 0.00 | 38 | 1003.7 |
| 20260504020822 | 60 | 224 | 0.0 | 0.9 | 0.00 | 0.00 | 0.00 | 38 | 1003.4 |
| 20260504020319 | 61 | 223 | 0.9 | 0.9 | 0.00 | 0.00 | 0.00 | 37 | 1003.5 |
| 20260504015815 | 61 | 224 | 0.9 | 0.9 | 0.00 | 0.00 | 0.00 | 36 | 1003.4 |
| 20260504015311 | 62 | 223 | 0.9 | 0.9 | 0.00 | 0.00 | 0.00 | 35 | 1003.7 |
| 20260504014808 | 62 | 223 | 0.9 | 1.7 | 0.00 | 0.00 | 0.00 | 33 | 1003.8 |
| 20260504014304 | 63 | 224 | 0.0 | 0.9 | 0.00 | 0.00 | 0.00 | 34 | 1003.8 |
| 20260504013802 | 63 | 227 | 0.9 | 0.9 | 0.00 | 0.00 | 0.00 | 33 | 1003.7 |
| 20260504013259 | 64 | 226 | 0.9 | 0.9 | 0.00 | 0.00 | 0.00 | 32 | 1003.8 |
| 20260504012755 | 64 | 226 | 0.9 | 0.9 | 0.00 | 0.00 | 0.00 | 31 | 1003.9 |
| 20260504012254 | 65 | 244 | 0.9 | 0.9 | 0.00 | 0.00 | 0.00 | 30 | 1003.7 |
| 20260504011750 | 65 | 245 | 0.9 | 1.7 | 0.00 | 0.00 | 0.00 | 29 | 1003.9 |
| 20260504011247 | 65 | 236 | 0.0 | 0.9 | 0.00 | 0.00 | 0.00 | 29 | 1003.6 |
| 20260504010743 | 66 | 235 | 0.9 | 0.9 | 0.00 | 0.00 | 0.00 | 28 | 1003.9 |
| 20260504010238 | 66 | 263 | 0.9 | 1.7 | 0.00 | 0.00 | 0.00 | 27 | 1004.0 |
| 20260504005736 | 67 | 241 | 0.9 | 1.7 | 0.00 | 0.00 | 0.00 | 27 | 1003.8 |
| 20260504005233 | 67 | 251 | 0.9 | 0.9 | 0.00 | 0.00 | 0.00 | 27 | 1004.0 |
| 20260504004730 | 67 | 226 | 0.9 | 1.7 | 0.00 | 0.00 | 0.00 | 26 | 1003.9 |
| 20260504004227 | 67 | 255 | 0.9 | 1.7 | 0.00 | 0.00 | 0.00 | 26 | 1003.8 |
| 20260504003724 | 68 | 236 | 0.9 | 1.7 | 0.00 | 0.00 | 0.00 | 25 | 1003.9 |
| 20260504003221 | 68 | 251 | 1.7 | 1.7 | 0.00 | 0.00 | 0.00 | 25 | 1003.9 |
| 20260504002717 | 68 | 266 | 0.9 | 1.7 | 0.00 | 0.00 | 0.00 | 25 | 1004.0 |
| 20260504002214 | 68 | 268 | 1.7 | 4.3 | 0.00 | 0.00 | 0.00 | 25 | 1004.0 |
| 20260504001712 | 69 | 220 | 1.7 | 2.6 | 0.00 | 0.00 | 0.00 | 25 | 1004.1 |
| 20260504001209 | 69 | 279 | 2.6 | 4.3 | 0.00 | 0.00 | 0.00 | 25 | 1004.1 |
| 20260504000705 | 69 | 253 | 0.9 | 2.6 | 0.00 | 0.00 | 0.00 | 24 | 1003.9 |
| 20260504000204 | 69 | 238 | 1.7 | 4.3 | 0.00 | 0.00 | 0.00 | 24 | 1003.9 |
| 20260503235701 | 70 | 254 | 1.7 | 5.2 | 0.00 | 0.00 | 0.00 | 24 | 1004.1 |
| 20260503235157 | 70 | 271 | 0.0 | 4.3 | 0.00 | 0.00 | 0.00 | 23 | 1004.0 |
| 20260503234655 | 70 | 274 | 1.7 | 6.1 | 0.00 | 0.00 | 0.00 | 24 | 1003.9 |
| 20260503234153 | 70 | 241 | 0.9 | 2.6 | 0.00 | 0.00 | 0.00 | 24 | 1004.1 |
| 20260503233649 | 70 | 269 | 1.7 | 4.3 | 0.00 | 0.00 | 0.00 | 23 | 1004.2 |
| 20260503233145 | 71 | 251 | 2.6 | 5.2 | 0.00 | 0.00 | 0.00 | 22 | 1004.1 |
| 20260503232642 | 70 | 218 | 2.6 | 4.3 | 0.00 | 0.00 | 0.00 | 23 | 1004.2 |
| 20260503232140 | 71 | 288 | 2.6 | 5.2 | 0.00 | 0.00 | 0.00 | 24 | 1004.2 |